Regional Weather Roundup
Issued by NWS Cleveland, OH

Home | Current Version | Previous Version | Graphics & Text | Print | Product List | Glossary On
Versions: 1 2 3 4 5 6 7 8 9 10 11 12 13 14 15 16 17 18 19 20 21 22 23 24 25 26 27 28 29 30 31 32 33 34 35 36 37 38 39 40 41 42 43 44 45 46 47 48 49 50
000
ASUS41 KCLE 170610
RWRCLE
OHIO REGIONAL WEATHER ROUNDUP
NATIONAL WEATHER SERVICE CLEVELAND, OH
200 AM EDT TUE OCT 17 2017

NOTE: "FAIR" INDICATES FEW OR NO CLOUDS BELOW 12,000 FEET WITH NO
SIGNIFICANT WEATHER AND/OR OBSTRUCTIONS TO VISIBILITY.

OHZ001>008-015>018-024>027-034-035-043-044-170700-
   NORTHWEST OHIO

CITY           SKY/WX    TMP DP  RH WIND       PRES   REMARKS
DEFIANCE       CLEAR     42  37  82 CALM      30.27S
FINDLAY        CLEAR     42  36  79 S5        30.27S
TOLEDO EXPRESS CLEAR     43  41  93 S5        30.26S
TOLEDO EXEC    CLEAR     44  39  82 S5        30.27S
LIMA           CLEAR     43  39  86 S7        30.28S
$$

OHZ009>014-019>023-028>033-038-089-170700-
   NORTHEAST OHIO

CITY           SKY/WX    TMP DP  RH WIND       PRES   REMARKS
CLE-HOPKINS    CLEAR     41  36  82 S5        30.30S
CLE-LAKEFRONT  CLEAR     45  35  68 SE12      30.27S
CUY CO. ARPT   NOT AVBL
LORAIN-ELYRIA    N/A    N/A N/A N/A MISG      30.29S
ASHTABULA      CLEAR     38  34  85 CALM      30.29S
AKRON-CANTON   CLEAR     42  35  76 S3        30.29S
WOOSTER        CLEAR     35  33  92 CALM      30.30S
MANSFIELD      CLEAR     41  36  82 S5        30.29S
YOUNGSTOWN     CLEAR     38  32  79 CALM      30.29R
$$

OHZ042-051>053-060>062-070>072-077>081-170700-
  SOUTHWEST OHIO

CITY           SKY/WX    TMP DP  RH WIND       PRES   REMARKS
CINC-COVINGTON CLEAR     40  40 100 CALM      30.31S
CINC-LUNKEN    CLEAR     41  41 100 CALM      30.33F
HAMILTON       CLEAR     38  36  92 CALM      30.33S
DAYTON         CLEAR     45  38  76 S7        30.30F
WRIGHT-PAT AFB CLEAR     41  41 100 CALM      30.30S
DAYTON GENERAL CLEAR     44  36  73 S3        30.30S
WILMINGTON     CLEAR     40  39  97 CALM      30.31S
$$

OHZ036-037-039>041-045>050-054>059-063>069-073>076-082>088-170700-
  CENTRAL AND SOUTHEAST OHIO

CITY           SKY/WX    TMP DP  RH WIND       PRES   REMARKS
COLUMBUS       CLEAR     43  41  93 CALM      30.30S
OSU AIRPORT    CLEAR     43  42  97 CALM      30.30S FOG
BOLTON FIELD   CLEAR     38  38  99 SW3       30.31S
RICKENBACK AFB CLEAR     41  40  97 CALM      30.31R
NEWARK         CLEAR     38  35  89 CALM      30.31R
MARION         CLEAR     40  37  89 S6        30.29F
LANCASTER      CLEAR     38  36  92 CALM      30.31S
ZANESVILLE     CLEAR     39  37  92 CALM      30.31S
NEW PHILLY     NOT AVBL
$$




USA.gov is the U.S. government's official web portal to all federal, state and local government web resources and services.